| time (UTC) | temp F | wind direction | speed MPH | gust MPH | rain 1hr in | rain 24hr in | rain mn in | humidity % | barometer mb |
| 20260506192516 | 62 | 270 | 4.0 | 10.0 | 0.01 | 0.26 | 0.26 | 87 | 1005.3 |
| 20260506191516 | 62 | 270 | 6.0 | 13.0 | 0.02 | 0.26 | 0.26 | 87 | 1005.3 |
| 20260506190516 | 62 | 270 | 5.0 | 8.0 | 0.03 | 0.26 | 0.26 | 87 | 1005.5 |
| 20260506185516 | 62 | 270 | 5.0 | 11.0 | 0.04 | 0.26 | 0.26 | 87 | 1005.6 |
| 20260506184516 | 62 | 270 | 5.0 | 8.0 | 0.04 | 0.26 | 0.26 | 87 | 1005.7 |
| 20260506183515 | 61 | 270 | 6.0 | 10.0 | 0.05 | 0.26 | 0.26 | 87 | 1005.8 |
| 20260506182516 | 61 | 270 | 4.0 | 7.0 | 0.04 | 0.25 | 0.25 | 87 | 1005.8 |
| 20260506181516 | 61 | 270 | 4.0 | 9.0 | 0.06 | 0.24 | 0.24 | 87 | 1005.9 |
| 20260506180536 | 62 | 270 | 4.0 | 6.0 | 0.07 | 0.23 | 0.23 | 87 | 1005.9 |
| 20260506175516 | 61 | 270 | 3.0 | 7.0 | 0.06 | 0.22 | 0.22 | 87 | 1005.9 |
| 20260506174515 | 62 | 270 | 5.0 | 11.0 | 0.06 | 0.22 | 0.22 | 87 | 1006.0 |
| 20260506173515 | 61 | 248 | 4.0 | 7.0 | 0.06 | 0.21 | 0.21 | 87 | 1006.0 |
| 20260506172516 | 62 | 270 | 6.0 | 15.0 | 0.06 | 0.21 | 0.21 | 86 | 1006.2 |
| 20260506171556 | 62 | 248 | 5.0 | 11.0 | 0.04 | 0.18 | 0.18 | 86 | 1006.2 |
| 20260506170516 | 62 | 270 | 4.0 | 14.0 | 0.03 | 0.16 | 0.16 | 86 | 1006.2 |
| 20260506165515 | 62 | 248 | 4.0 | 10.0 | 0.04 | 0.16 | 0.16 | 86 | 1006.1 |
| 20260506164515 | 62 | 270 | 6.0 | 12.0 | 0.06 | 0.16 | 0.16 | 86 | 1006.4 |
| 20260506163515 | 62 | 225 | 5.0 | 9.0 | 0.07 | 0.15 | 0.15 | 86 | 1006.2 |
| 20260506162515 | 62 | 248 | 4.0 | 9.0 | 0.09 | 0.15 | 0.15 | 86 | 1006.2 |
| 20260506161515 | 62 | 270 | 3.0 | 7.0 | 0.09 | 0.14 | 0.14 | 86 | 1006.2 |
| 20260506160516 | 62 | 225 | 4.0 | 10.0 | 0.08 | 0.13 | 0.13 | 86 | 1006.4 |
| 20260506155515 | 62 | 270 | 4.0 | 9.0 | 0.08 | 0.12 | 0.12 | 86 | 1007.0 |
| 20260506154515 | 62 | 248 | 5.0 | 12.0 | 0.07 | 0.10 | 0.10 | 85 | 1007.2 |
| 20260506153536 | 62 | 225 | 6.0 | 12.0 | 0.07 | 0.08 | 0.08 | 85 | 1007.3 |
| 20260506152515 | 63 | 225 | 5.0 | 10.0 | 0.06 | 0.06 | 0.06 | 85 | 1007.4 |
| 20260506151515 | 63 | 225 | 4.0 | 9.0 | 0.05 | 0.05 | 0.05 | 85 | 1007.1 |
| 20260506150515 | 63 | 203 | 5.0 | 10.0 | 0.05 | 0.05 | 0.05 | 84 | 1006.9 |
| 20260506145515 | 63 | 270 | 4.0 | 8.0 | 0.04 | 0.04 | 0.04 | 83 | 1007.1 |
| 20260506144515 | 64 | 225 | 4.0 | 10.0 | 0.03 | 0.03 | 0.03 | 83 | 1007.0 |
| 20260506143515 | 65 | 270 | 5.0 | 12.0 | 0.01 | 0.01 | 0.01 | 81 | 1007.4 |
| 20260506142517 | 65 | 270 | 4.0 | 9.0 | 0.00 | 0.00 | 0.00 | 80 | 1007.3 |
| 20260506141515 | 65 | 248 | 4.0 | 7.0 | 0.00 | 0.00 | 0.00 | 80 | 1007.1 |
| 20260506140517 | 65 | 270 | 5.0 | 15.0 | 0.00 | 0.00 | 0.00 | 80 | 1007.0 |
| 20260506135517 | 66 | 270 | 6.0 | 10.0 | 0.00 | 0.00 | 0.00 | 80 | 1007.2 |
| 20260506134517 | 65 | 270 | 6.0 | 9.0 | 0.00 | 0.00 | 0.00 | 79 | 1007.2 |
| 20260506133517 | 66 | 270 | 5.0 | 9.0 | 0.00 | 0.00 | 0.00 | 78 | 1007.3 |
| 20260506132517 | 66 | 270 | 5.0 | 13.0 | 0.00 | 0.00 | 0.00 | 78 | 1007.4 |
| 20260506131517 | 66 | 270 | 6.0 | 11.0 | 0.00 | 0.00 | 0.00 | 77 | 1007.4 |
| 20260506130537 | 66 | 270 | 5.0 | 10.0 | 0.00 | 0.00 | 0.00 | 76 | 1007.6 |
| 20260506125515 | 66 | 270 | 5.0 | 9.0 | 0.00 | 0.00 | 0.00 | 75 | 1007.5 |
| 20260506124517 | 66 | 270 | 4.0 | 9.0 | 0.00 | 0.00 | 0.00 | 75 | 1007.4 |
| 20260506123537 | 66 | 270 | 2.0 | 5.0 | 0.00 | 0.00 | 0.00 | 76 | 1007.3 |
| 20260506122517 | 66 | 225 | 4.0 | 8.0 | 0.00 | 0.00 | 0.00 | 76 | 1007.2 |
| 20260506121517 | 66 | 225 | 4.0 | 7.0 | 0.00 | 0.00 | 0.00 | 76 | 1007.2 |
| 20260506120517 | 66 | 203 | 3.0 | 7.0 | 0.00 | 0.00 | 0.00 | 76 | 1007.2 |
| 20260506115517 | 66 | 248 | 3.0 | 8.0 | 0.00 | 0.00 | 0.00 | 76 | 1007.3 |
| 20260506114517 | 66 | 248 | 4.0 | 8.0 | 0.00 | 0.00 | 0.00 | 76 | 1007.3 |
| 20260506113517 | 66 | 270 | 5.0 | 11.0 | 0.00 | 0.00 | 0.00 | 75 | 1007.4 |
| 20260506112517 | 66 | 225 | 3.0 | 7.0 | 0.00 | 0.00 | 0.00 | 75 | 1007.5 |
| 20260506111517 | 66 | 248 | 2.0 | 9.0 | 0.00 | 0.00 | 0.00 | 75 | 1007.3 |
| 20260506110517 | 66 | 225 | 5.0 | 9.0 | 0.00 | 0.00 | 0.00 | 75 | 1007.1 |
| 20260506105517 | 66 | 225 | 4.0 | 9.0 | 0.00 | 0.00 | 0.00 | 75 | 1007.1 |
| 20260506104517 | 66 | 225 | 4.0 | 9.0 | 0.00 | 0.00 | 0.00 | 75 | 1006.9 |
| 20260506103517 | 66 | 248 | 4.0 | 8.0 | 0.00 | 0.00 | 0.00 | 75 | 1006.7 |
| 20260506102517 | 66 | 225 | 4.0 | 11.0 | 0.00 | 0.00 | 0.00 | 74 | 1006.7 |
| 20260506101517 | 66 | 203 | 3.0 | 6.0 | 0.00 | 0.00 | 0.00 | 74 | 1006.8 |
| 20260506100517 | 66 | 270 | 4.0 | 11.0 | 0.00 | 0.00 | 0.00 | 74 | 1007.0 |
| 20260506095517 | 66 | 225 | 5.0 | 10.0 | 0.00 | 0.00 | 0.00 | 74 | 1007.0 |
| 20260506094517 | 67 | 270 | 4.0 | 6.0 | 0.00 | 0.00 | 0.00 | 73 | 1006.8 |
| 20260506093517 | 67 | 293 | 3.0 | 8.0 | 0.00 | 0.00 | 0.00 | 73 | 1006.9 |
| 20260506092517 | 67 | 270 | 3.0 | 9.0 | 0.00 | 0.00 | 0.00 | 73 | 1006.9 |
| 20260506091517 | 67 | 270 | 4.0 | 11.0 | 0.00 | 0.00 | 0.00 | 72 | 1006.7 |
| 20260506090516 | 67 | 225 | 3.0 | 7.0 | 0.00 | 0.00 | 0.00 | 72 | 1007.0 |
| 20260506085516 | 67 | 248 | 4.0 | 12.0 | 0.00 | 0.03 | 0.00 | 72 | 1007.0 |
| 20260506084537 | 67 | 203 | 3.0 | 4.0 | 0.00 | 0.03 | 0.00 | 71 | 1007.1 |
| 20260506083517 | 67 | 248 | 3.0 | 7.0 | 0.00 | 0.03 | 0.00 | 71 | 1007.1 |
| 20260506082537 | 67 | 270 | 3.0 | 8.0 | 0.00 | 0.03 | 0.00 | 70 | 1007.0 |
| 20260506081517 | 67 | 270 | 3.0 | 9.0 | 0.00 | 0.03 | 0.00 | 70 | 1007.1 |
| 20260506080517 | 67 | 270 | 4.0 | 7.0 | 0.00 | 0.03 | 0.00 | 69 | 1007.0 |
| 20260506073517 | 67 | 180 | 2.0 | 5.0 | 0.00 | 0.03 | 0.00 | 67 | 1007.2 |
| 20260506072516 | 68 | 225 | 3.0 | 8.0 | 0.00 | 0.03 | 0.00 | 66 | 1007.2 |
| 20260506071517 | 68 | 270 | 3.0 | 9.0 | 0.00 | 0.03 | 0.00 | 65 | 1007.2 |
| 20260506070516 | 68 | 270 | 3.0 | 8.0 | 0.00 | 0.03 | 0.00 | 65 | 1007.2 |
| 20260506062516 | 69 | 248 | 3.0 | 7.0 | 0.00 | 0.03 | 0.00 | 62 | 1007.6 |
| 20260506061516 | 69 | 270 | 5.0 | 11.0 | 0.00 | 0.03 | 0.00 | 62 | 1007.6 |
| 20260506060516 | 69 | 270 | 4.0 | 8.0 | 0.00 | 0.03 | 0.00 | 61 | 1007.8 |
| 20260506050516 | 69 | 270 | 4.0 | 10.0 | 0.00 | 0.03 | 0.00 | 61 | 1008.1 |
| 20260506044516 | 69 | 270 | 4.0 | 8.0 | 0.00 | 0.03 | 0.00 | 61 | 1008.1 |
| 20260506043516 | 69 | 225 | 4.0 | 10.0 | 0.00 | 0.03 | 0.00 | 61 | 1008.1 |
| 20260506042516 | 69 | 203 | 3.0 | 7.0 | 0.00 | 0.03 | 0.00 | 60 | 1008.2 |
| 20260506041516 | 69 | 248 | 4.0 | 12.0 | 0.00 | 0.03 | 0.00 | 60 | 1008.1 |
| 20260506040516 | 69 | 203 | 3.0 | 7.0 | 0.00 | 0.03 | 0.00 | 58 | 1008.1 |
| 20260506035517 | 70 | 203 | 4.0 | 8.0 | 0.00 | 0.03 | 0.03 | 57 | 1008.1 |
| 20260506034517 | 70 | 248 | 4.0 | 11.0 | 0.00 | 0.03 | 0.03 | 55 | 1008.1 |
| 20260506033517 | 71 | 248 | 4.0 | 8.0 | 0.00 | 0.03 | 0.03 | 54 | 1007.9 |
| 20260506032557 | 71 | 225 | 5.0 | 11.0 | 0.00 | 0.03 | 0.03 | 53 | 1007.9 |
| 20260506031517 | 71 | 225 | 5.0 | 11.0 | 0.00 | 0.03 | 0.03 | 52 | 1007.9 |
| 20260506030537 | 72 | 270 | 6.0 | 11.0 | 0.00 | 0.03 | 0.03 | 52 | 1007.9 |
| 20260506025537 | 72 | 270 | 5.0 | 13.0 | 0.00 | 0.03 | 0.03 | 51 | 1007.8 |
| 20260506024517 | 73 | 293 | 5.0 | 10.0 | 0.00 | 0.03 | 0.03 | 50 | 1007.8 |
| 20260506023516 | 73 | 225 | 6.0 | 10.0 | 0.00 | 0.03 | 0.03 | 49 | 1007.9 |
| 20260506022517 | 73 | 248 | 7.0 | 13.0 | 0.00 | 0.03 | 0.03 | 48 | 1007.9 |
| 20260506021517 | 74 | 225 | 7.0 | 14.0 | 0.00 | 0.03 | 0.03 | 47 | 1007.8 |
| 20260506020517 | 74 | 225 | 6.0 | 11.0 | 0.00 | 0.03 | 0.03 | 47 | 1007.7 |
| 20260506015516 | 74 | 203 | 6.0 | 13.0 | 0.00 | 0.03 | 0.03 | 47 | 1007.7 |
| 20260506014537 | 74 | 225 | 5.0 | 14.0 | 0.00 | 0.03 | 0.03 | 47 | 1007.6 |
| 20260506013517 | 74 | 225 | 7.0 | 13.0 | 0.00 | 0.03 | 0.03 | 47 | 1007.5 |
| 20260506012517 | 74 | 225 | 5.0 | 10.0 | 0.00 | 0.03 | 0.03 | 46 | 1007.4 |
| 20260506011556 | 75 | 225 | 4.0 | 9.0 | 0.00 | 0.03 | 0.03 | 45 | 1007.4 |
| 20260506010517 | 75 | 248 | 5.0 | 11.0 | 0.00 | 0.03 | 0.03 | 43 | 1007.2 |
| 20260506005517 | 76 | 270 | 4.0 | 7.0 | 0.00 | 0.03 | 0.03 | 43 | 1007.1 |
| 20260506004516 | 76 | 270 | 5.0 | 13.0 | 0.00 | 0.03 | 0.03 | 43 | 1006.9 |
| 20260506003517 | 76 | 270 | 5.0 | 12.0 | 0.00 | 0.03 | 0.03 | 42 | 1006.9 |
| 20260506002517 | 76 | 225 | 4.0 | 8.0 | 0.00 | 0.03 | 0.03 | 42 | 1006.6 |
| 20260506001517 | 76 | 270 | 5.0 | 11.0 | 0.00 | 0.03 | 0.03 | 41 | 1006.6 |
| 20260506000516 | 77 | 248 | 4.0 | 8.0 | 0.00 | 0.03 | 0.03 | 40 | 1006.5 |
| 20260505235536 | 77 | 248 | 5.0 | 8.0 | 0.00 | 0.03 | 0.03 | 39 | 1006.5 |
| 20260505234536 | 77 | 270 | 6.0 | 14.0 | 0.00 | 0.03 | 0.03 | 38 | 1006.4 |
| 20260505233516 | 78 | 225 | 6.0 | 13.0 | 0.00 | 0.03 | 0.03 | 38 | 1006.3 |
| 20260505232536 | 78 | 270 | 8.0 | 16.0 | 0.00 | 0.03 | 0.03 | 38 | 1006.3 |
| 20260505231516 | 78 | 270 | 5.0 | 9.0 | 0.00 | 0.03 | 0.03 | 38 | 1006.2 |
| 20260505230516 | 79 | 270 | 7.0 | 11.0 | 0.00 | 0.03 | 0.03 | 38 | 1006.3 |
| 20260505225516 | 79 | 248 | 7.0 | 14.0 | 0.00 | 0.03 | 0.03 | 38 | 1006.0 |
| 20260505224536 | 80 | 248 | 8.0 | 15.0 | 0.00 | 0.03 | 0.03 | 37 | 1005.9 |
| 20260505223516 | 80 | 270 | 6.0 | 12.0 | 0.00 | 0.03 | 0.03 | 37 | 1005.9 |
| 20260505222516 | 80 | 270 | 7.0 | 13.0 | 0.00 | 0.03 | 0.03 | 37 | 1005.7 |
| 20260505221516 | 80 | 270 | 9.0 | 16.0 | 0.00 | 0.03 | 0.03 | 37 | 1005.6 |
| 20260505220516 | 80 | 270 | 7.0 | 12.0 | 0.00 | 0.03 | 0.03 | 38 | 1005.7 |
| 20260505215536 | 80 | 270 | 8.0 | 16.0 | 0.00 | 0.03 | 0.03 | 37 | 1005.7 |
| 20260505214516 | 80 | 270 | 10.0 | 22.0 | 0.00 | 0.03 | 0.03 | 37 | 1005.8 |
| 20260505213516 | 80 | 225 | 11.0 | 19.0 | 0.00 | 0.03 | 0.03 | 37 | 1005.8 |
| 20260505212516 | 80 | 270 | 10.0 | 18.0 | 0.00 | 0.03 | 0.03 | 37 | 1005.8 |
| 20260505211516 | 81 | 270 | 10.0 | 17.0 | 0.00 | 0.03 | 0.03 | 36 | 1005.8 |
| 20260505210516 | 81 | 270 | 11.0 | 24.0 | 0.00 | 0.03 | 0.03 | 36 | 1005.6 |
| 20260505205516 | 81 | 225 | 9.0 | 22.0 | 0.00 | 0.03 | 0.03 | 37 | 1005.7 |
| 20260505204516 | 80 | 225 | 8.0 | 14.0 | 0.00 | 0.03 | 0.03 | 36 | 1005.6 |
| 20260505203516 | 80 | 270 | 9.0 | 16.0 | 0.00 | 0.03 | 0.03 | 37 | 1005.6 |
| 20260505202516 | 81 | 225 | 9.0 | 19.0 | 0.00 | 0.03 | 0.03 | 35 | 1005.5 |
| 20260505201536 | 82 | 270 | 9.0 | 16.0 | 0.00 | 0.03 | 0.03 | 36 | 1005.8 |
| 20260505200516 | 82 | 225 | 10.0 | 19.0 | 0.00 | 0.03 | 0.03 | 35 | 1005.6 |
| 20260505195516 | 83 | 270 | 8.0 | 18.0 | 0.00 | 0.03 | 0.03 | 34 | 1005.9 |
| 20260505194516 | 82 | 225 | 9.0 | 15.0 | 0.00 | 0.03 | 0.03 | 35 | 1005.9 |
| 20260505193636 | 83 | 270 | 10.0 | 20.0 | 0.00 | 0.03 | 0.03 | 35 | 1006.0 |